Akron Canton, OH

11:17 PM EST on January 23, 2018 (GMT -0500)
Akron-Canton Regional

Weather History for KCAK - December, 2012

Change the Weather History Date:

Friday, December 21, 2012

  Actual Average Record
Temperature  
Mean Temperature 33 °F 29 °F  
Max Temperature 37 °F 35 °F 65 °F (1967)
Min Temperature 29 °F 22 °F -8 °F (1989)
Degree Days  
Heating Degree Days 32 36  
Month to date heating degree days 480 698  
Since 1 July heating degree days 1774 1957  
Cooling Degree Days 0 0  
Month to date cooling degree days 0 0  
Year to date cooling degree days 1046 652  
Moisture  
Dew Point 26 °F    
Average Humidity 81    
Maximum Humidity 92    
Minimum Humidity 69    
Precipitation  
Precipitation 0.24 in 0.08 in 1.17 in (2013)
Month to date precipitation 3.14 1.96  
Year to date precipitation 36.86 38.74  
Snow  
Snow 2.40 in 0.40 in - ()
Month to date snowfall 2.4 6.6  
Since 1 July snowfall 2.9 10.0  
Snow Depth 0.00 in    
Sea Level Pressure  
Sea Level Pressure 29.47 in    
Wind  
Wind Speed 20 mph (West)    
Max Wind Speed 35 mph    
Max Gust Speed 44 mph    
Visibility 3 miles    
Events Snow    
T = Trace of Precipitation, MM = Missing Value Source: NWS Daily Summary

Daily Weather History Graph

Daily Weather History Graph

Search for Another Location

Airport or City:

Trip Planner

Search our weather history database for the weather conditions in past years. The results will help you decide how hot, cold, wet, or windy it might be!

Date:

Astronomy

Dec. 21, 2012 Rise Set
Actual Time 7:47 AM EST 5:01 PM EST
Civil Twilight 7:16 AM EST 5:32 PM EST
Nautical Twilight 6:41 AM EST 6:06 PM EST
Astronomical Twilight 6:07 AM EST 6:40 PM EST
Moon 12:49 PM EST (12/21) 1:30 AM EST (12/21)
Length of Visible Light 10h 16m
Length of Day
9h 13m
Waxing Gibbous, 64% of the Moon is Illuminated
Dec 21
Waxing Gibbous
Dec 28
Full
Jan 4
Last Quarter
Jan 11
New
Jan 18
First Quarter

Hourly Weather History & Observations

Time (EST) Temp. Windchill Dew Point Humidity Pressure Visibility Wind Dir Wind Speed Gust Speed Precip Events Conditions
12:29 AM 37.4 °F 25.9 °F 26.6 °F 65% 29.36 in 10.0 mi SW 25.3 mph 38.0 mph 0.00 in Snow Light Snow
12:51 AM 35.1 °F 22.7 °F 26.1 °F 70% 29.37 in 6.0 mi SW 25.3 mph 41.4 mph 0.00 in Snow Light Snow
1:18 AM 33.8 °F 21.9 °F 28.4 °F 81% 29.35 in 2.5 mi SSW 21.9 mph 32.2 mph 0.00 in Snow Light Snow
1:51 AM 34.0 °F 21.8 °F 25.0 °F 70% 29.37 in 9.0 mi SW 23.0 mph 35.7 mph 0.00 in Snow Light Snow
2:51 AM 34.0 °F 21.5 °F 25.0 °F 70% 29.37 in 9.0 mi SW 24.2 mph 36.8 mph 0.00 in Snow Light Snow
3:51 AM 33.1 °F 20.3 °F 25.0 °F 72% 29.36 in 8.0 mi SW 24.2 mph 33.4 mph 0.00 in Snow Light Snow
4:51 AM 32.0 °F 20.1 °F 26.1 °F 79% 29.34 in 6.0 mi SW 19.6 mph 32.2 mph 0.00 in Snow Light Snow
5:49 AM 30.2 °F 18.9 °F 26.6 °F 86% 29.32 in 4.0 mi SW 16.1 mph 27.6 mph 0.00 in Snow Light Snow
5:51 AM 30.9 °F 18.4 °F 27.0 °F 85% 29.34 in 4.0 mi SW 20.7 mph 26.5 mph 0.00 in Snow Light Snow
6:51 AM 30.2 °F 17.1 °F 26.6 °F 86% 29.30 in 5.0 mi SW 21.9 mph 34.5 mph N/A Snow Light Snow
7:51 AM 30.9 °F 18.1 °F 27.0 °F 85% 29.31 in 3.0 mi SW 21.9 mph 29.9 mph 0.00 in Snow Light Snow
8:21 AM 30.2 °F 18.5 °F 26.6 °F 86% 29.29 in 2.0 mi SW 17.3 mph 26.5 mph 0.00 in Snow Light Snow
8:51 AM 30.9 °F 20.2 °F 27.0 °F 85% 29.31 in 1.5 mi WSW 15.0 mph 23.0 mph 0.01 in Snow Light Snow
9:51 AM 32.0 °F 21.6 °F 28.0 °F 85% 29.33 in 1.0 mi WSW 15.0 mph 21.9 mph 0.01 in Snow Light Snow
10:51 AM 33.1 °F 21.2 °F 30.0 °F 89% 29.35 in 0.8 mi West 20.7 mph 28.8 mph 0.01 in Snow Light Snow
11:28 AM 33.8 °F 23.5 °F 28.4 °F 81% 29.33 in 1.5 mi West 16.1 mph 25.3 mph 0.02 in Snow Light Snow
11:51 AM 33.1 °F 20.9 °F 28.9 °F 85% 29.36 in 0.8 mi West 21.9 mph 31.1 mph 0.04 in Snow Light Snow
12:13 PM 33.8 °F 21.0 °F 26.6 °F 75% 29.33 in 2.0 mi WNW 25.3 mph 36.8 mph 0.01 in Snow Light Snow
12:51 PM 32.0 °F 20.1 °F 27.0 °F 82% 29.38 in 2.0 mi WNW 19.6 mph 29.9 mph 0.01 in Snow Light Snow
12:59 PM 32.0 °F 19.2 °F 26.6 °F 80% 29.36 in 1.5 mi WNW 23.0 mph 36.8 mph 0.00 in Snow Light Snow
1:51 PM 32.0 °F 19.2 °F 27.0 °F 82% 29.42 in 1.0 mi WNW 23.0 mph 32.2 mph 0.00 in Snow Light Snow
2:39 PM 30.2 °F 19.3 °F 26.6 °F 86% 29.41 in 0.5 mi WNW 15.0 mph - 0.01 in Snow Light Snow
2:51 PM 30.9 °F 18.7 °F 28.0 °F 89% 29.45 in 1.0 mi WNW 19.6 mph 29.9 mph 0.03 in Snow Light Snow
3:33 PM 30.2 °F 18.1 °F 26.6 °F 86% 29.45 in 0.8 mi WNW 18.4 mph 28.8 mph 0.00 in Snow Light Snow
3:51 PM 30.0 °F 16.9 °F 26.1 °F 85% 29.50 in 0.8 mi WNW 21.9 mph 33.4 mph 0.00 in Snow Light Snow
4:51 PM 28.4 °F 16.2 °F 24.8 °F 86% 29.51 in 0.8 mi NW 17.3 mph 35.7 mph N/A Snow Light Snow
5:51 PM 30.0 °F 16.0 °F 25.0 °F 82% 29.59 in 0.8 mi NW 25.3 mph 38.0 mph 0.01 in Snow Light Snow
5:55 PM 30.2 °F 17.4 °F 24.8 °F 80% 29.56 in 2.0 mi NW 20.7 mph 31.1 mph 0.00 in Snow Light Snow
6:19 PM 30.2 °F 19.3 °F 24.8 °F 80% 29.57 in 2.0 mi WNW 15.0 mph 24.2 mph 0.00 in Snow Light Snow
6:51 PM 30.0 °F 18.7 °F 26.1 °F 85% 29.62 in 1.0 mi WNW 16.1 mph 24.2 mph 0.01 in Snow Light Snow
7:51 PM 30.0 °F 16.6 °F 26.1 °F 85% 29.65 in 1.5 mi WNW 23.0 mph 29.9 mph 0.02 in Snow Light Snow
7:53 PM 30.2 °F 16.8 °F 26.6 °F 86% 29.62 in 1.5 mi NW 23.0 mph 29.9 mph 0.00 in Snow Light Snow
8:27 PM 30.2 °F 16.8 °F 24.8 °F 80% 29.63 in 2.5 mi NW 23.0 mph 32.2 mph 0.00 in Snow Light Snow
8:51 PM 30.2 °F 20.8 °F 26.6 °F 86% 29.65 in 1.5 mi NW 11.5 mph 20.7 mph N/A Snow Light Snow
9:17 PM 30.2 °F 19.3 °F 26.6 °F 86% 29.66 in 2.0 mi NW 15.0 mph 23.0 mph 0.00 in Snow Light Snow
9:51 PM 30.0 °F 17.9 °F 27.0 °F 88% 29.71 in 1.0 mi NNW 18.4 mph 26.5 mph 0.01 in Snow Light Snow
10:51 PM 30.0 °F 21.1 °F 27.0 °F 88% 29.74 in 1.0 mi NW 10.4 mph - 0.04 in Snow Light Snow
11:20 PM 30.2 °F 18.5 °F 26.6 °F 86% 29.72 in 1.0 mi NW 17.3 mph 23.0 mph 0.03 in Snow Light Snow
11:51 PM 30.9 °F 17.5 °F 24.1 °F 76% 29.76 in 1.0 mi NW 24.2 mph 34.5 mph 0.03 in Snow Light Snow